Location: Forli
(44.2227°N, 12.0407°E)
Time: 03:38:45
(UTC+02:00)

DX 1 - Pass Details

Date: 19 April 2026
Orbit: 593 x 604 km, 98.4° (Epoch: 19 May)

Event Time Altitude Azimuth Distance (km) Brightness Sun altitude
Rises 05:32:15 0° 357° (N) 2,842 ? -9.1°
Reaches altitude 10° 05:35:05 10° 336° (NNW) 1,935 ? -8.7°
Maximum altitude 05:37:41 16° 298° (WNW) 1,562 ? -8.3°
Drops below altitude 10° 05:40:16 10° 259° (W) 1,927 ? -7.8°
Enters shadow 05:40:26 - 257° (WSW) 1,972 ? -7.8°
